Theta_e
328 317 316 313 309 307 307 300 291 288 291 287 286 288 287 293 297 295 296 301 307 317 323 325 323 322 319 316 321 327 329 316 316 308 304 324 344 343 344 346 347 348 350 352 352 354 355 355 355 355 355 355 355 355 354 354 354 354 354 354 354 354 354 353 354 353 353 353 353 353 354 353 352 352 351 351 350 350 350 350 350 350 349 349 348 348 346 347 346 346 346 346 346 346 345 345 345
317 312 308 312 310 307 303 292 286 289 285 283 287 287 289 292 294 294 296 297 310 321 326 328 329 330 331 331 331 328 327 332 333 331 336 342 343 343 345 346 347 348 350 351 353 354 354 354 354 355 354 354 354 355 354 354 354 354 354 354 354 353 353 353 353 353 353 353 353 353 353 353 352 352 351 350 351 350 350 349 350 350 350 350 349 348 347 347 346 346 346 346 346 346 346 345 345
320 306 305 307 304 302 298 294 290 283 285 282 285 289 292 293 294 295 296 303 323 325 327 326 327 326 326 327 323 320 315 336 336 338 336 342 337 339 345 348 348 348 348 351 353 353 352 352 353 354 353 354 354 354 354 354 353 354 354 354 353 353 353 353 353 353 353 353 353 353 353 353 353 352 352 351 351 350 349 348 349 349 349 349 348 347 347 347 347 346 346 345 344 344 344 345 345
309 308 304 300 301 294 293 290 284 286 285 283 285 289 290 292 294 297 300 318 324 325 324 324 322 327 324 322 325 332 330 331 338 338 336 338 337 342 345 345 346 347 348 349 351 351 351 353 354 354 354 354 354 354 354 353 353 354 354 354 354 353 353 353 353 352 353 352 352 352 352 352 353 352 352 351 350 350 349 349 347 348 348 348 347 347 346 346 346 347 346 346 346 345 345 346 346
306 310 307 298 294 296 292 290 286 284 287 285 282 287 293 294 295 297 304 305 314 319 323 324 321 327 327 325 326 322 327 337 339 340 337 339 343 342 342 344 344 345 346 349 349 350 352 353 354 353 354 354 354 353 353 353 353 353 353 353 353 353 353 352 352 352 352 352 352 352 351 351 352 352 351 350 350 350 350 349 349 347 347 347 347 348 347 346 346 347 347 347 348 348 347 347 347
302 299 304 302 298 298 293 290 290 287 291 288 288 289 292 296 297 298 299 319 322 322 323 322 320 321 323 326 329 326 337 329 337 337 338 337 340 342 342 342 343 344 346 348 349 349 351 353 353 353 354 354 354 353 353 352 353 353 353 353 353 353 352 352 352 352 352 352 352 351 351 350 350 350 350 349 349 350 349 349 348 348 346 347 347 346 346 347 347 347 346 346 347 348 348 347 346
304 298 297 297 297 294 288 284 285 287 292 292 291 293 297 299 299 299 299 314 321 322 324 323 327 325 322 326 331 336 339 341 338 337 339 338 340 340 341 341 344 344 347 347 349 349 351 352 352 352 352 353 353 353 352 352 352 353 352 353 352 353 352 352 352 351 351 351 350 350 350 351 350 350 349 349 349 348 348 348 347 346 346 348 346 346 346 347 347 346 346 347 348 348 347 346 345
307 299 298 290 288 290 289 286 287 287 290 295 295 295 298 300 300 299 298 308 314 316 323 326 326 323 321 332 324 336 337 338 336 338 338 338 338 339 340 342 343 344 346 347 348 350 354 351 352 352 352 353 352 353 352 352 353 352 353 352 352 352 352 351 351 351 351 350 350 350 350 350 350 349 349 349 349 348 347 347 346 346 347 347 346 347 346 347 346 347 347 346 346 346 346 346 345
300 298 299 292 290 289 285 286 287 289 291 293 295 298 308 302 301 298 297 299 315 320 322 324 324 319 323 329 328 333 334 337 338 339 338 337 337 338 340 342 343 344 345 346 347 349 350 352 352 352 353 352 352 352 352 352 352 353 353 352 352 351 351 351 351 350 351 351 350 350 350 350 350 349 349 349 348 347 347 346 347 348 349 350 348 348 348 348 348 347 346 345 345 345 345 345 344
297 298 292 290 287 289 284 286 288 289 291 293 295 298 298 299 298 298 297 304 317 321 323 328 326 322 329 326 329 331 332 337 337 335 337 336 337 338 340 342 344 343 343 344 346 347 349 353 352 351 352 352 352 352 352 352 352 352 352 352 351 351 351 351 351 351 351 350 350 350 349 349 349 349 349 349 348 347 347 346 347 348 348 349 349 348 349 348 347 346 345 344 344 343 343 343 342
294 293 292 288 286 284 286 284 286 290 292 295 295 298 298 299 297 296 297 303 320 321 325 328 324 324 327 325 327 339 339 337 335 332 336 337 338 339 340 342 343 343 342 342 344 346 347 349 352 351 351 352 352 351 351 352 352 352 351 351 351 351 351 351 351 350 350 350 350 349 350 349 349 349 349 349 348 347 347 347 347 347 347 348 347 347 347 347 346 345 344 343 343 342 341 341 341
293 291 288 283 283 284 284 284 286 290 292 293 294 298 297 297 297 303 309 315 319 322 321 324 322 330 325 326 327 335 338 336 335 335 337 338 338 340 340 340 341 341 341 341 342 341 342 347 348 351 351 352 352 351 351 352 352 351 351 351 351 351 351 350 351 350 350 350 350 350 350 350 349 349 349 348 348 347 347 347 347 346 346 347 347 347 347 346 345 344 343 342 341 341 341 340 340
292 289 286 285 283 285 286 287 287 294 291 291 293 298 298 297 296 310 314 316 320 317 316 324 330 329 321 324 331 335 333 334 337 337 339 338 339 340 339 339 339 340 340 341 341 341 344 346 349 350 351 352 351 351 351 351 351 351 350 351 351 351 351 351 350 350 350 350 350 350 349 349 348 348 348 348 347 347 347 346 346 346 346 347 347 347 346 345 345 344 343 342 341 341 340 340 341
295 291 289 288 286 285 287 286 285 288 286 290 294 296 297 297 297 296 307 309 312 311 320 331 329 329 324 327 327 327 330 335 337 338 339 339 339 338 337 337 338 338 339 341 341 342 343 347 348 348 349 349 349 350 351 351 351 351 350 350 350 350 350 351 350 350 350 349 349 349 349 348 348 348 347 347 347 346 347 346 346 346 346 347 347 346 346 345 345 344 342 341 341 341 340 340 340
298 292 289 287 285 286 285 287 285 286 288 291 295 295 296 300 296 299 313 314 318 326 329 331 331 325 319 324 323 327 331 335 337 339 339 338 338 337 336 336 336 337 338 340 340 342 344 347 347 347 348 348 348 347 348 349 351 350 350 350 350 350 350 350 350 350 349 349 349 349 348 348 348 347 347 347 347 347 346 347 346 346 346 346 346 346 346 345 344 343 342 342 342 340 340 340 341
296 291 288 289 283 284 285 288 288 289 288 291 295 295 295 300 299 298 300 316 321 325 323 322 327 316 327 328 329 331 334 336 338 339 338 336 336 336 335 334 334 334 336 340 342 344 346 346 346 347 347 347 346 346 347 348 350 351 350 350 350 350 350 350 349 349 349 349 349 348 348 347 347 346 348 345 347 347 347 345 345 345 345 346 346 346 346 345 343 342 342 342 341 340 340 340 340
295 293 288 284 285 285 285 288 289 288 290 292 295 295 295 295 299 313 323 323 321 320 325 327 321 330 329 329 332 334 335 337 339 338 336 335 335 333 333 332 332 331 335 338 339 343 345 345 346 346 346 347 347 346 346 347 349 350 349 350 350 350 349 349 349 349 348 348 347 348 345 341 339 340 342 339 346 342 346 346 345 345 345 345 345 345 344 345 344 343 342 341 341 340 339 341 340
296 290 285 284 284 286 288 290 291 293 292 294 295 294 294 294 296 309 316 321 323 323 323 326 329 329 331 332 335 335 336 335 336 334 332 331 333 331 329 330 329 328 334 338 341 343 343 344 345 345 345 346 346 345 346 346 347 348 346 346 347 347 349 349 347 345 348 344 346 343 339 342 336 335 337 346 339 342 343 345 345 345 344 345 345 345 344 344 344 343 343 342 340 340 340 326 327
292 287 286 286 286 288 291 292 293 294 294 293 294 295 295 296 296 299 310 312 317 319 321 325 324 327 330 332 332 333 334 333 334 333 331 330 331 330 328 328 328 330 334 337 340 341 341 342 344 344 344 345 344 344 344 345 345 344 343 343 346 348 348 347 343 344 339 339 338 338 339 335 335 338 338 342 341 345 341 344 344 344 343 343 344 344 344 344 344 344 344 342 341 341 327 323 323
291 290 285 286 289 290 292 294 295 294 295 295 293 295 294 296 296 299 306 309 316 317 317 321 322 322 326 328 330 331 332 332 333 332 330 330 331 330 328 327 327 330 334 336 338 340 340 340 342 343 343 344 343 343 344 343 343 342 340 341 342 342 341 341 339 338 337 336 337 335 334 336 335 335 346 347 345 341 340 344 344 344 342 343 343 343 342 343 344 344 343 343 339 333 325 326 325
291 291 288 288 289 292 294 295 296 296 295 294 294 293 294 296 297 298 304 306 305 312 321 322 322 324 325 327 328 329 330 330 331 331 330 331 331 330 329 328 328 331 335 337 338 338 339 340 341 341 342 342 342 343 343 342 342 341 339 339 340 340 339 336 336 335 336 336 336 336 334 336 332 331 332 335 336 334 333 334 336 336 336 336 343 334 334 337 337 333 333 332 328 328 327 324 324
292 291 290 292 292 292 296 295 294 295 295 294 293 293 295 296 296 296 305 302 297 308 321 325 326 326 326 326 327 329 328 328 329 329 329 329 329 329 329 328 330 333 336 336 336 338 338 340 340 341 341 340 340 341 341 343 343 340 340 339 338 340 337 335 334 334 334 335 335 336 336 332 331 330 330 331 333 332 332 333 332 332 333 334 335 333 332 331 331 330 329 328 327 325 326 324 322
290 290 291 292 292 292 294 297 295 293 294 294 295 294 296 293 295 295 296 299 299 308 326 327 328 328 328 329 328 326 325 326 326 326 327 327 329 329 329 330 332 333 335 335 337 337 339 339 340 341 340 339 339 341 341 341 340 340 339 339 339 338 335 333 332 331 332 333 334 336 333 330 330 329 330 329 329 330 331 330 330 331 331 332 333 333 330 330 330 329 329 328 326 326 326 325 323
293 289 290 294 293 294 296 296 295 293 294 293 293 295 295 294 292 298 316 321 321 327 328 328 329 329 329 327 327 325 324 324 324 325 327 328 329 329 330 330 333 335 335 335 336 337 338 339 341 341 340 339 338 339 339 339 338 337 338 342 338 341 336 332 331 330 332 333 335 334 335 330 330 328 328 328 328 328 329 329 327 329 330 330 331 332 330 329 328 327 327 328 329 328 328 327 325
291 290 291 293 294 294 295 295 294 293 293 294 294 293 294 293 294 313 317 322 326 327 328 328 328 328 327 326 325 324 323 323 323 323 323 325 328 330 328 328 330 332 333 335 336 337 339 340 341 340 341 340 339 339 339 338 337 337 338 339 336 342 332 332 331 332 332 333 334 335 336 330 329 328 327 328 327 327 327 327 327 327 328 329 328 329 329 329 328 327 327 328 327 327 326 326 327
291 293 294 292 293 293 294 292 292 293 294 293 294 292 292 292 320 316 317 324 327 328 327 327 326 326 325 325 324 323 322 322 322 322 323 323 324 326 325 327 328 330 332 334 336 337 339 341 341 340 341 341 340 340 338 337 337 336 337 337 336 341 333 332 331 331 330 332 331 332 334 331 330 329 328 327 328 326 326 326 327 325 327 328 328 328 328 328 329 328 327 327 328 326 327 327 327
290 292 292 292 294 294 294 293 293 291 293 291 293 292 292 293 311 306 320 327 328 326 325 326 325 324 325 324 322 322 322 321 322 323 322 322 322 324 325 326 327 329 329 332 333 335 338 340 340 341 342 343 340 339 338 337 338 337 337 337 336 336 334 334 332 331 330 330 330 332 332 332 331 329 329 328 327 327 325 324 325 325 327 329 327 326 327 327 327 328 327 326 325 325 326 324 324
295 294 293 293 292 291 292 291 291 292 294 291 293 291 292 294 305 313 321 327 328 324 324 324 324 324 323 322 321 321 322 322 322 322 321 321 323 324 324 326 326 327 326 328 330 330 332 339 340 341 341 342 340 339 340 337 337 337 338 336 335 334 335 331 330 331 334 331 331 330 331 331 332 328 328 327 328 327 326 325 325 324 326 329 332 330 328 327 326 327 328 327 325 324 323 321 322
294 295 291 290 288 291 290 291 293 292 294 292 291 294 291 292 290 315 325 328 327 325 324 324 323 322 322 321 321 321 321 321 321 321 322 324 325 325 325 326 327 327 327 327 329 330 331 334 338 340 341 340 338 338 338 337 336 338 336 334 334 335 333 331 330 330 331 331 330 330 329 330 329 328 327 329 332 327 327 325 324 324 325 329 331 332 332 327 327 327 326 327 322 319 319 318 323
295 292 290 289 285 287 290 292 293 293 294 292 293 284 284 286 293 321 327 326 326 324 324 324 322 322 321 320 320 320 320 321 320 322 323 323 323 322 323 324 326 326 325 326 326 328 331 333 338 338 339 338 336 336 336 335 335 335 332 332 335 332 330 330 331 329 332 330 330 328 328 329 328 328 328 327 328 327 327 326 325 324 326 328 329 330 328 326 327 326 325 324 326 318 316 318 318
291 290 288 285 283 283 289 293 292 293 293 293 295 286 285 289 308 323 326 326 324 322 323 323 321 321 321 320 320 320 320 321 322 322 323 322 322 321 323 323 324 323 325 324 325 327 329 331 336 337 337 336 337 335 335 333 332 334 331 330 330 329 329 328 328 329 328 327 329 328 327 329 328 328 327 326 326 326 326 325 325 326 326 326 329 329 329 328 327 326 323 322 318 318 319 321 318
286 287 281 282 284 284 288 292 294 291 292 293 294 286 286 292 311 322 325 325 324 322 323 322 321 320 320 319 319 319 320 322 322 323 323 322 322 321 323 323 324 323 325 324 325 326 327 328 336 335 335 333 332 333 332 332 332 330 329 332 327 327 327 328 328 329 328 327 328 326 327 328 327 329 329 326 325 325 325 325 324 324 326 326 326 325 325 325 324 323 322 320 318 321 323 322 321
284 285 280 283 284 284 288 291 292 294 293 293 293 285 286 292 310 320 323 323 323 322 322 322 321 320 319 319 319 319 319 319 320 321 322 322 322 321 322 322 323 324 324 323 324 324 324 329 335 333 332 331 330 331 330 329 328 327 327 327 326 324 324 324 326 326 328 328 326 326 326 329 327 329 328 327 325 325 324 324 326 327 327 325 326 324 324 326 325 323 321 323 319 320 322 323 322
280 283 284 284 286 285 284 289 291 291 292 289 291 289 287 289 307 318 321 322 321 320 320 321 320 320 320 319 319 318 318 318 320 321 321 321 322 321 321 325 323 324 324 324 325 325 325 329 330 329 328 328 328 329 329 327 326 326 325 325 328 323 322 323 325 327 327 325 325 324 326 328 327 326 328 326 324 327 326 326 327 327 325 324 325 325 326 325 323 323 322 323 323 323 320 321 320
282 281 283 286 285 286 287 286 289 292 291 290 288 288 288 291 309 315 319 320 319 318 319 320 319 319 318 318 318 317 318 318 320 321 321 321 320 321 322 322 322 324 325 325 325 326 326 326 326 328 325 324 325 326 324 321 320 321 322 323 322 322 322 322 324 324 322 324 322 324 326 326 326 324 327 327 324 326 325 326 327 327 325 324 324 323 324 324 325 322 322 322 324 324 322 321 322
286 286 285 285 284 286 286 290 293 293 290 287 287 287 286 297 307 312 314 317 316 315 316 318 319 318 316 316 316 317 317 319 321 322 321 321 320 320 321 322 323 323 324 324 325 324 324 324 323 322 322 322 321 320 318 317 319 321 321 320 320 320 318 322 317 320 319 321 324 324 326 324 325 325 324 325 324 325 325 325 325 327 325 325 321 322 322 322 322 322 321 322 321 322 324 325 322
289 288 288 286 286 287 289 290 293 292 289 287 287 288 288 298 305 309 309 309 309 312 313 314 317 316 315 315 316 316 317 318 321 320 320 320 320 321 321 322 322 323 323 323 323 323 323 322 321 319 319 320 319 316 316 317 318 317 316 317 316 314 317 316 316 315 316 318 322 324 324 323 322 324 325 324 322 328 324 323 325 324 323 325 324 323 323 324 324 323 322 320 318 316 321 324 323
290 289 287 284 286 285 290 291 293 295 290 287 287 288 289 296 299 304 304 306 308 311 312 313 314 315 315 315 315 315 316 316 318 317 319 319 319 320 321 322 323 321 322 323 323 322 321 320 320 319 318 317 316 316 317 317 317 319 318 315 313 314 315 316 314 313 316 318 317 319 321 321 321 321 324 321 322 324 323 321 323 324 325 322 323 323 321 327 325 322 320 319 318 316 320 325 322
290 287 285 285 283 286 289 290 293 296 289 287 288 289 289 292 296 300 304 306 309 313 314 314 314 313 314 315 314 314 313 314 315 315 317 318 319 320 321 322 321 321 322 323 323 322 320 319 319 318 316 315 314 316 316 316 314 316 316 313 315 312 312 313 313 316 317 315 314 315 316 315 316 318 321 323 321 323 322 322 324 324 324 326 324 321 322 323 323 321 320 319 319 321 322 324 320
288 285 285 284 283 286 284 287 293 295 293 290 288 288 290 290 292 293 303 306 306 313 314 313 315 314 314 314 315 314 314 313 314 315 316 317 318 319 320 322 321 321 322 322 322 321 320 320 319 317 316 315 315 318 318 315 317 315 315 314 313 312 312 316 313 313 314 315 315 315 316 313 315 315 316 321 322 321 321 321 320 320 321 324 322 321 321 321 320 322 322 319 318 319 320 319 321
287 289 286 284 286 286 285 286 291 292 293 292 289 286 285 287 290 293 296 300 305 308 311 309 311 313 313 314 314 315 314 314 314 314 315 316 316 318 320 322 321 321 321 323 322 321 322 320 319 318 316 315 318 320 316 317 316 314 314 314 315 314 314 311 312 312 312 317 314 314 314 314 315 315 315 317 321 320 318 319 319 319 319 321 320 320 321 320 318 318 321 321 319 319 319 320 323
284 287 289 288 287 289 288 289 288 283 283 290 287 278 282 285 287 290 293 301 301 305 308 309 311 310 312 313 314 314 313 314 315 315 316 316 317 318 320 321 321 321 322 323 324 323 321 320 320 318 317 317 318 316 316 317 316 314 313 312 310 309 308 309 308 309 310 311 312 312 312 313 314 313 312 314 317 318 318 318 316 319 319 321 320 317 318 319 319 320 322 324 322 321 322 321 321
284 287 290 290 290 290 289 289 285 281 281 290 291 282 278 281 290 291 291 299 301 301 304 306 307 308 311 313 313 313 313 313 313 313 315 315 316 318 319 321 321 321 322 324 324 323 322 321 320 319 318 318 317 315 316 317 314 314 313 313 312 311 309 307 307 308 310 311 310 311 312 312 312 312 311 311 313 316 316 316 315 315 317 317 319 316 315 316 320 323 322 322 323 322 321 320 322
284 288 290 290 290 291 290 288 285 283 287 289 287 283 280 282 284 289 290 296 299 299 300 302 305 306 308 311 313 312 312 313 314 314 315 315 317 319 319 321 322 322 323 323 323 323 322 321 320 319 319 318 316 315 315 316 314 313 312 311 312 310 311 311 310 310 310 313 311 310 310 310 310 311 311 311 313 315 314 314 314 315 315 316 318 315 314 315 318 319 317 316 318 317 317 319 320
286 290 291 289 290 290 289 287 284 286 286 284 282 288 282 279 281 289 291 292 293 298 298 300 303 306 306 310 312 311 312 313 314 314 314 315 317 319 320 321 322 322 323 323 324 324 323 321 320 319 318 317 314 315 314 314 315 313 313 312 311 311 311 313 312 312 311 310 309 308 309 308 309 309 310 311 311 313 315 312 312 313 313 314 316 314 313 313 312 311 311 312 312 312 314 315 318
291 291 291 290 290 290 287 284 286 283 281 278 283 285 282 277 279 285 287 288 289 294 298 301 302 305 306 309 310 311 312 312 314 315 315 315 318 319 320 321 321 322 323 324 324 324 323 321 319 318 317 315 314 313 313 312 313 314 313 312 312 311 312 310 310 309 309 307 307 306 307 308 308 308 309 309 310 310 311 312 312 312 312 314 314 311 311 311 310 310 308 309 309 310 310 312 311
292 290 289 286 285 285 285 283 282 280 276 277 282 285 282 279 279 283 286 289 290 288 292 295 298 304 306 308 311 311 312 312 314 315 314 314 315 318 319 320 320 320 322 323 323 324 323 321 318 317 316 315 314 312 311 312 312 313 313 313 313 313 312 312 312 309 308 307 306 306 306 306 307 307 308 309 310 311 312 313 311 311 312 316 313 311 309 309 307 308 308 308 308 307 307 307 308
291 288 283 286 284 282 280 277 279 274 272 276 282 286 284 281 279 285 287 290 291 292 293 296 297 301 305 308 311 311 311 312 314 314 312 313 314 315 317 318 318 319 320 322 322 322 322 319 318 316 316 315 314 313 311 311 312 313 315 314 314 314 313 313 312 311 308 306 305 305 306 306 306 306 306 307 308 308 311 309 310 309 310 309 309 309 309 309 309 309 308 308 307 306 306 308 305
287 286 285 282 277 274 277 276 277 274 275 284 284 286 284 281 281 288 291 292 292 293 295 299 300 303 305 309 311 310 310 311 312 312 311 312 313 315 316 317 316 317 320 321 320 320 318 318 318 317 316 316 316 314 312 311 311 313 314 314 314 314 313 313 312 310 308 307 306 305 305 305 305 305 306 307 306 306 309 308 308 309 309 310 308 308 307 308 309 308 309 308 307 306 305 306 305
285 285 280 278 273 269 269 269 272 277 281 283 284 286 281 280 286 290 291 294 294 300 301 302 302 303 305 307 308 308 309 310 311 311 311 312 313 314 316 317 317 316 317 318 318 317 317 319 320 319 317 317 317 315 313 312 312 314 314 314 314 315 313 313 312 312 309 307 307 306 305 306 305 304 304 306 307 306 307 309 308 307 307 307 308 308 308 308 308 308 307 307 306 304 305 305 304
285 285 286 283 277 275 270 274 271 275 278 281 284 282 278 278 284 293 295 300 304 305 305 305 305 305 306 308 309 309 309 309 310 309 311 311 311 312 313 315 315 315 316 316 317 317 317 318 319 319 318 318 317 315 313 312 313 314 314 314 315 315 315 314 313 312 309 308 306 306 305 306 305 304 305 306 308 306 306 306 306 307 307 308 309 309 310 308 308 308 307 306 306 304 305 306 303
287 285 285 282 280 279 279 276 278 277 277 277 282 278 281 286 290 294 297 303 304 305 305 306 305 306 306 306 306 306 307 308 308 308 308 307 307 310 311 311 312 313 314 315 316 315 316 317 318 319 319 317 317 316 313 313 315 315 314 314 315 315 316 315 313 313 310 308 308 308 306 306 306 306 305 306 307 307 306 306 307 306 306 307 308 307 307 307 305 306 305 306 307 308 305 303 302
284 285 282 282 285 284 276 277 280 274 275 275 273 282 284 286 290 292 295 301 302 304 304 304 304 305 305 305 307 308 309 309 308 308 307 307 307 307 310 311 312 311 313 315 316 315 315 316 317 317 317 316 317 316 314 315 315 315 314 315 315 315 314 314 314 313 311 310 308 307 308 307 307 307 307 308 306 306 306 305 305 305 306 307 306 306 306 305 306 307 306 305 305 303 305 303 302
284 281 282 287 290 288 282 275 273 269 270 271 278 276 281 280 280 288 291 295 294 301 301 303 304 305 304 304 306 308 309 308 308 307 307 307 307 307 309 311 311 313 314 315 316 315 315 315 315 315 317 317 316 316 316 316 315 316 315 315 316 315 315 315 315 314 313 312 309 308 307 307 308 308 308 310 307 306 306 312 305 304 304 305 306 305 305 304 305 304 304 304 304 304 305 303 304
286 283 287 285 277 280 279 278 270 271 271 269 276 277 280 279 283 285 290 291 293 298 299 302 303 304 304 305 306 308 308 307 306 306 306 307 307 307 306 308 311 312 312 314 315 315 315 314 314 314 314 315 316 316 316 316 316 316 316 316 316 315 315 316 315 315 314 313 312 310 308 309 308 308 310 309 306 306 306 306 305 304 304 305 304 305 305 306 305 304 304 304 303 303 303 303 302
287 288 286 287 281 278 278 276 277 277 268 269 274 276 275 285 283 288 288 289 295 296 297 300 302 304 304 305 306 306 306 306 306 306 305 305 306 305 306 307 310 311 312 313 314 314 315 315 315 315 316 316 316 315 316 315 316 317 317 316 315 316 316 316 315 315 314 314 314 312 311 308 310 311 310 309 308 307 307 305 305 305 305 304 304 304 304 304 304 304 305 305 303 303 303 303 302
283 281 280 284 283 284 282 282 280 276 268 265 269 271 278 280 286 289 290 290 295 299 299 299 301 302 303 304 304 305 306 305 305 305 304 305 305 306 306 306 308 308 309 312 313 314 314 314 315 315 315 315 315 315 316 315 316 317 316 315 314 315 315 316 315 316 315 315 314 313 312 311 310 311 310 310 310 309 308 307 306 307 305 305 305 305 304 304 304 303 303 303 302 302 303 302 302
284 281 282 281 280 281 278 275 281 278 277 270 269 270 276 284 293 294 292 291 295 298 301 301 302 303 303 303 304 304 304 305 304 304 304 305 304 305 306 307 307 308 308 309 309 312 313 314 314 314 314 315 314 314 316 316 315 314 313 313 313 313 313 314 315 315 316 315 313 313 313 310 311 312 311 311 311 310 309 308 307 306 306 306 306 306 304 305 306 304 303 305 304 302 302 302 301
Wind_Speed
4 1 1 1 1 2 2 3 2 2 2 4 3 1 3 1 3 3 6 1 1 2 3 1 2 5 1 2 7 8 10 3 1 7 4 1 6 9 13 13 12 12 10 6 4 5 7 9 11 12 12 14 14 12 13 14 15 16 16 16 16 15 15 15 16 17 17 16 16 16 16 17 16 16 16 16 15 15 15 15 14 14 16 16 16 15 15 15 14 14 13 13 13 13 14 14 15
4 0 1 1 1 1 1 1 3 1 4 2 8 2 3 3 2 5 8 2 2 1 1 7 10 12 13 12 8 1 9 10 4 3 5 7 10 9 12 13 13 14 10 8 7 7 7 8 10 11 12 13 13 12 13 14 14 15 16 16 16 15 15 15 16 16 17 16 17 16 16 16 15 15 15 14 13 14 14 13 13 14 15 16 16 16 15 14 13 13 13 13 12 12 13 14 15
1 2 2 2 3 3 1 2 1 1 3 3 7 5 2 4 6 6 4 3 6 6 4 8 7 4 2 2 6 4 1 7 9 7 6 10 11 6 10 11 13 13 11 9 12 11 8 8 10 10 12 12 12 12 12 13 14 14 14 15 16 16 15 16 16 16 15 15 15 15 16 15 14 14 14 14 14 14 14 14 12 13 14 14 14 14 14 14 13 12 11 12 12 12 13 14 14
0 3 4 2 0 3 2 3 4 7 4 6 5 5 4 3 4 2 5 0 8 8 4 2 4 3 3 9 4 5 6 4 4 6 6 4 4 10 12 11 10 7 7 5 6 10 12 12 13 12 12 12 13 12 11 12 13 13 13 14 15 15 15 15 15 15 15 15 14 14 14 14 14 14 14 13 13 13 14 13 10 12 12 12 13 13 13 13 13 11 11 11 12 12 12 13 14
1 2 2 2 4 1 2 1 3 3 5 5 4 5 4 5 6 2 3 2 4 2 0 3 5 3 2 6 0 2 3 8 5 5 5 8 10 10 13 11 10 6 5 4 4 6 11 20 16 13 14 14 13 12 11 12 12 12 13 14 14 15 15 15 15 14 15 14 14 14 14 14 13 13 14 14 13 12 12 12 10 10 11 10 10 10 12 12 12 11 10 10 12 13 12 12 13
4 3 2 1 0 2 4 1 0 4 8 4 1 4 5 7 5 2 2 0 1 3 3 2 2 4 3 3 1 5 8 5 6 6 9 8 14 14 16 14 14 11 6 3 4 3 6 16 15 14 13 14 14 14 12 12 13 12 12 13 14 15 15 15 14 14 14 14 14 14 14 14 14 13 13 13 12 11 10 9 9 9 10 11 11 12 13 12 12 11 10 10 11 12 12 12 11
0 3 3 3 1 3 4 2 5 6 8 5 2 5 9 11 4 6 2 0 1 3 4 1 11 10 8 1 4 4 3 8 7 7 6 11 11 11 14 13 12 13 9 7 6 5 7 14 15 14 14 15 15 15 13 13 13 12 12 12 14 14 14 14 14 13 14 14 14 13 14 14 14 13 13 13 13 12 10 9 10 10 9 9 10 11 12 12 11 11 9 8 10 10 11 10 10
2 2 1 2 1 1 0 2 5 5 5 5 2 4 9 10 8 3 3 0 2 3 1 2 4 7 2 4 4 6 12 6 13 15 14 10 14 12 12 10 10 11 9 9 7 7 11 11 14 15 14 13 15 15 14 14 14 13 12 12 13 13 14 14 13 13 13 13 14 13 14 14 14 13 12 12 11 10 10 9 9 9 9 9 10 11 12 11 11 10 9 6 6 8 9 10 9
2 4 0 5 1 2 1 4 6 2 6 4 7 8 13 13 10 4 5 3 0 3 4 1 1 7 1 8 4 6 7 11 13 13 12 13 11 10 8 9 10 10 9 8 7 7 7 11 11 12 13 13 14 14 13 14 13 13 13 13 13 11 11 12 13 13 12 12 12 13 13 13 13 12 12 11 11 10 9 9 9 10 10 11 11 12 12 12 11 10 8 6 5 5 7 8 9
1 1 1 2 3 1 1 7 0 3 2 4 5 12 12 10 7 6 5 2 3 8 1 4 3 9 9 9 5 6 5 11 14 12 11 10 11 10 10 8 9 12 11 9 8 7 8 13 10 10 10 12 13 13 12 12 12 12 12 13 12 11 11 11 11 11 11 12 12 13 13 13 12 11 11 11 11 10 9 9 9 9 9 10 12 13 12 12 11 10 8 6 5 5 6 7 8
0 3 2 3 1 1 3 6 2 6 4 5 9 12 13 9 7 6 6 4 4 5 6 11 10 10 7 4 3 3 9 12 14 12 10 10 11 11 10 9 9 9 11 11 8 6 5 9 14 9 9 11 11 11 10 10 11 11 11 11 11 12 12 11 11 12 12 12 12 12 12 12 12 11 11 11 10 9 9 9 9 10 9 10 10 11 11 11 11 9 8 6 5 5 6 6 7
1 0 1 2 2 5 5 2 3 8 7 5 5 8 4 5 1 4 5 8 3 6 4 2 5 12 9 3 3 6 7 8 8 9 9 10 9 10 10 8 10 10 11 10 11 8 4 8 7 11 12 11 11 11 11 11 11 11 11 12 11 11 11 11 11 11 11 11 10 10 10 10 11 10 10 9 9 9 9 9 10 10 10 9 10 10 10 10 10 9 7 6 5 5 5 5 5
2 1 5 3 2 1 2 0 4 4 4 5 3 7 6 4 1 6 5 6 5 8 2 2 17 4 6 3 4 5 9 7 7 8 7 7 9 9 9 9 9 9 8 8 11 10 5 5 7 7 10 13 10 10 10 11 11 11 11 11 11 11 11 11 11 11 11 10 10 10 9 8 9 9 9 8 8 8 8 9 9 9 10 9 9 9 9 9 9 8 7 5 5 4 5 5 5
2 5 3 1 0 2 1 1 2 2 5 5 4 5 6 0 1 3 7 7 1 2 1 13 7 12 8 5 4 3 6 9 9 8 7 7 7 7 9 7 8 8 7 8 9 10 7 6 6 6 7 8 7 9 10 11 11 11 10 10 10 10 10 11 10 10 10 10 11 10 9 9 8 8 7 7 7 7 7 7 7 8 9 9 8 9 9 9 8 7 6 5 5 4 4 5 5
1 1 1 1 1 0 1 2 3 1 5 3 6 5 9 1 2 1 5 8 4 2 6 4 5 5 6 9 3 8 8 11 10 9 9 7 8 9 9 7 7 7 5 5 5 7 8 8 6 6 5 5 5 4 4 8 12 11 10 10 10 10 10 11 11 11 11 10 10 10 10 9 8 8 7 6 6 7 8 7 6 7 8 8 8 8 8 8 7 6 5 4 4 4 4 4 5
3 3 2 1 3 3 3 1 1 1 5 4 7 7 2 3 2 3 1 4 4 3 3 2 1 0 6 12 13 13 15 13 11 11 11 11 10 9 8 7 6 5 4 6 6 6 7 8 6 5 5 5 4 4 4 5 10 12 11 10 10 10 12 12 11 11 12 11 11 10 10 7 7 6 8 5 7 7 6 4 7 7 8 8 8 8 8 7 6 5 4 3 2 2 3 5 6
1 2 0 1 5 2 3 2 2 0 6 6 6 7 5 3 4 3 6 6 13 2 6 6 3 2 10 1 12 16 14 13 12 13 12 10 9 8 7 6 5 4 4 3 2 6 8 10 10 7 6 7 5 5 4 5 8 11 10 11 12 12 12 12 12 12 11 10 9 8 7 4 3 3 4 3 7 3 5 6 8 8 8 8 8 8 7 7 6 5 4 3 1 2 3 4 5
2 1 3 3 4 1 4 3 3 1 2 6 6 4 6 3 6 1 5 10 9 9 9 3 13 12 12 12 14 14 14 12 14 13 9 10 7 9 7 6 7 7 6 6 4 6 6 5 7 8 7 7 6 5 4 4 5 8 5 5 6 8 10 10 8 5 7 4 9 6 3 3 3 3 3 5 2 3 4 7 8 8 8 9 8 8 8 7 7 6 4 2 0 1 3 2 3
3 1 2 8 3 5 3 2 4 1 6 4 6 0 2 0 1 1 4 0 2 9 7 8 13 14 15 14 14 14 12 11 13 11 12 12 12 13 10 8 7 7 7 7 7 7 6 6 6 7 9 7 7 5 4 4 5 4 4 4 4 6 7 6 4 5 4 4 3 3 3 2 3 3 2 4 3 4 3 7 8 8 8 7 9 8 8 7 6 6 5 3 1 1 2 2 3
3 4 5 6 4 3 4 4 6 4 4 7 5 7 1 3 2 1 2 4 3 10 8 5 11 16 13 12 12 12 11 12 12 13 11 11 10 11 11 10 9 9 8 7 8 7 8 7 7 8 9 7 7 6 5 4 4 4 4 4 4 4 5 4 5 5 4 3 3 3 3 2 2 3 6 9 7 3 1 6 7 8 8 9 9 6 7 6 7 6 6 4 2 2 2 3 3
2 2 5 3 3 2 6 6 9 9 2 3 5 6 6 2 1 1 4 3 1 2 6 13 15 16 13 12 13 12 11 10 12 12 11 10 8 5 7 9 10 9 7 6 7 8 8 8 7 7 7 6 6 6 6 5 4 4 4 4 4 4 5 4 4 4 4 4 3 3 2 2 2 1 1 2 3 2 1 1 2 1 2 2 4 3 3 2 3 2 1 2 1 0 2 2 3
2 6 4 5 0 1 10 6 7 3 3 3 3 4 4 2 1 2 6 3 4 5 6 4 18 19 18 16 13 12 12 12 11 10 10 10 10 9 5 4 3 4 5 7 9 9 9 9 9 7 6 6 6 5 5 6 6 4 4 4 4 4 4 4 4 4 4 3 3 3 3 3 1 1 2 3 3 2 2 2 2 2 2 3 2 3 2 2 1 2 2 2 1 0 0 2 1
3 4 3 6 4 4 4 4 3 3 2 1 0 3 1 3 3 2 4 4 2 3 7 12 16 17 15 14 14 13 12 12 12 12 11 10 10 9 8 8 8 9 8 9 8 7 8 8 7 7 7 6 6 6 5 5 5 4 4 4 5 4 4 5 4 4 3 3 3 3 4 3 2 1 3 3 3 2 2 1 2 1 3 3 3 4 3 2 2 2 1 1 0 0 1 2 3
3 5 1 7 5 8 10 8 8 3 3 6 3 3 4 2 5 0 3 5 1 9 15 15 15 15 15 14 12 14 13 12 10 10 12 14 14 13 10 11 10 7 8 8 7 7 8 9 8 9 7 8 7 7 6 5 5 5 6 6 4 5 5 4 4 4 3 4 3 3 2 3 3 2 2 3 3 2 2 1 1 2 2 2 2 3 3 2 2 1 1 0 0 0 1 1 2
4 4 4 5 3 7 9 9 7 5 6 7 2 4 7 6 2 2 3 3 6 13 16 16 15 14 12 12 13 12 12 10 10 7 4 5 7 8 4 1 4 6 8 8 7 8 9 9 9 9 8 8 7 7 6 5 5 4 4 4 4 5 4 4 4 4 4 4 3 3 3 3 2 2 2 2 3 2 2 2 2 2 2 2 2 2 2 3 2 1 1 0 0 0 0 2 3
5 9 2 4 5 6 7 5 7 6 4 2 1 6 8 3 6 5 2 4 7 12 15 16 15 14 13 12 12 13 12 12 9 8 8 4 4 7 6 6 5 7 6 6 7 8 8 8 10 9 9 9 8 7 5 5 5 5 4 4 5 5 4 4 4 4 4 4 4 3 3 3 3 4 3 2 4 3 2 2 2 2 2 1 1 3 2 2 2 1 0 0 0 1 1 2 2
3 3 4 5 9 6 6 7 8 5 5 4 4 1 5 3 5 2 1 6 10 13 14 13 15 15 14 12 10 8 11 11 11 9 7 4 4 5 8 8 7 5 4 8 7 6 7 9 10 10 9 8 7 6 6 5 5 5 5 5 5 4 4 5 4 4 3 2 2 2 2 2 3 3 3 3 2 3 3 2 2 1 1 0 0 1 0 1 1 1 1 1 1 1 2 2 2
4 3 4 6 6 6 7 3 6 2 3 6 6 5 1 1 2 7 9 7 11 16 13 12 12 13 12 11 9 7 8 7 7 9 12 11 11 11 10 10 9 6 4 7 7 3 4 6 6 7 7 7 6 6 6 6 6 5 5 4 4 4 4 3 3 3 4 2 2 2 2 2 2 3 3 3 3 3 3 3 1 2 2 1 1 1 1 0 0 0 0 1 2 1 2 2 2
4 1 3 7 6 3 2 4 4 5 2 4 4 0 1 1 3 6 11 10 10 14 15 12 11 10 11 9 8 7 7 6 6 8 11 12 10 11 13 5 9 11 9 8 3 3 4 4 8 6 7 6 6 7 6 5 5 4 3 3 4 4 3 3 3 3 3 2 2 1 2 1 2 3 3 4 4 4 4 3 2 2 1 2 2 2 2 1 0 0 1 0 0 1 1 2 2
1 1 1 5 6 5 6 2 1 4 2 5 5 5 7 4 3 9 11 12 10 12 13 11 8 8 10 9 8 7 4 5 7 8 8 6 5 5 7 4 5 3 3 4 3 4 4 3 6 6 6 7 5 5 5 5 4 3 2 2 3 4 4 3 3 3 3 3 3 2 2 2 4 3 4 3 4 4 4 4 3 3 3 2 2 1 1 1 0 1 2 1 1 2 2 2 3
1 2 3 1 3 4 3 0 1 1 3 6 4 6 8 1 6 11 12 15 17 13 11 12 9 7 8 8 8 7 6 7 10 8 6 3 4 4 4 3 2 1 1 2 4 4 3 3 5 6 6 5 5 5 5 5 3 4 3 3 4 4 4 4 3 2 3 2 3 3 2 2 2 2 1 1 1 3 4 3 3 4 3 2 2 2 2 2 2 3 2 2 2 3 3 2 2
2 2 3 4 1 7 8 4 3 4 1 3 5 3 6 6 10 11 11 11 15 14 13 12 10 9 9 8 8 7 7 6 5 5 6 5 4 4 4 5 6 3 3 4 4 5 4 3 5 6 6 6 5 5 4 4 4 3 3 3 3 3 3 3 3 3 3 3 2 2 2 2 1 2 3 3 0 0 1 0 2 1 2 3 3 2 1 2 1 1 1 2 3 2 3 3 3
4 1 2 3 0 5 8 3 2 9 4 2 7 5 1 2 8 12 10 13 12 14 13 11 10 10 10 9 7 7 6 4 4 4 5 4 4 3 2 3 4 5 4 5 7 6 4 4 5 7 7 7 5 5 4 4 4 3 3 3 3 3 2 2 2 4 4 3 2 2 2 2 2 2 2 3 1 2 4 5 2 5 1 2 2 2 2 1 1 2 2 1 2 3 4 3 2
3 1 1 3 2 3 3 8 5 5 5 3 2 3 3 1 8 8 9 12 12 11 13 12 10 10 10 8 7 8 8 8 10 9 8 5 3 3 2 3 3 3 3 4 5 7 7 5 6 5 4 4 5 5 5 4 4 4 4 4 3 3 2 2 2 3 4 4 3 2 1 1 1 1 2 3 3 3 2 1 2 2 3 1 2 2 2 2 2 2 3 3 1 3 3 3 1
0 2 3 6 1 2 6 3 4 1 3 6 2 5 1 1 9 11 11 8 10 13 14 13 11 10 9 9 9 10 9 10 12 9 7 5 3 2 2 3 1 1 6 7 7 5 5 5 5 5 5 5 5 5 5 5 5 5 4 4 3 3 3 2 2 3 4 4 3 3 3 2 2 2 2 3 3 4 3 1 0 2 0 0 4 3 2 2 2 2 4 3 3 3 4 2 3
3 2 3 2 4 4 3 6 5 4 2 3 5 6 3 3 7 7 6 6 7 3 2 6 8 9 8 9 9 10 10 11 7 7 4 4 2 3 3 3 2 2 1 4 8 7 7 6 5 5 5 6 6 5 5 5 5 5 6 4 4 2 2 3 2 1 2 3 3 3 4 4 3 3 3 3 3 3 3 2 2 2 1 1 4 1 1 1 2 2 3 5 4 3 3 2 2
1 1 1 5 5 7 6 5 5 2 2 1 5 1 4 6 9 9 8 7 4 6 7 7 8 9 8 8 10 10 10 11 7 5 5 5 3 3 4 3 3 3 1 4 7 8 10 10 10 8 6 7 8 7 6 6 5 4 2 3 4 1 3 2 3 1 1 2 2 3 3 3 3 2 3 4 4 3 3 3 4 2 1 2 3 3 3 2 2 3 3 2 3 2 1 1 1
3 2 2 5 4 4 5 3 4 5 4 3 3 6 6 7 6 8 5 7 7 11 11 10 10 9 9 11 10 10 7 2 5 4 6 6 4 6 5 5 5 6 4 5 9 9 9 9 10 9 7 7 7 7 8 6 5 6 5 4 3 2 2 3 2 2 2 2 2 1 1 1 1 1 1 2 2 2 2 3 3 2 2 1 1 1 1 2 2 1 2 2 2 2 2 1 1
0 3 3 1 5 4 9 2 4 3 3 2 1 6 4 3 4 7 10 10 8 11 15 16 14 13 10 10 10 8 6 6 4 3 4 6 7 7 6 5 5 5 5 6 7 8 8 8 8 8 7 7 6 6 7 6 3 3 5 4 5 3 2 1 2 2 2 3 3 3 2 2 2 1 2 3 2 2 2 2 2 1 2 1 2 1 0 1 2 3 2 4 2 2 1 1 1
3 2 0 3 4 2 5 5 5 8 4 2 3 6 0 4 1 3 5 6 5 12 11 9 13 16 15 15 14 13 10 9 9 8 7 6 5 5 6 7 7 6 5 4 5 8 7 7 7 8 7 6 6 5 5 4 6 6 6 6 4 4 3 2 3 3 3 4 5 4 4 3 4 3 2 3 2 3 3 3 2 2 2 1 2 2 2 1 1 1 1 2 4 2 1 0 0
2 3 1 2 2 3 4 4 4 4 3 4 6 6 2 4 3 5 5 2 2 3 5 3 3 3 2 2 5 8 13 12 10 8 8 9 8 8 10 9 7 7 5 6 7 8 6 9 9 9 8 7 6 6 7 7 7 7 6 5 5 6 4 3 4 4 3 2 3 5 3 3 4 4 3 3 4 4 3 4 4 3 3 2 3 3 2 3 2 1 2 2 2 3 2 1 0
3 5 6 5 2 4 3 2 3 6 2 4 2 3 1 3 2 6 3 1 2 4 7 9 8 6 6 10 11 7 5 4 11 15 15 12 9 5 6 8 8 6 7 7 7 8 8 8 8 7 6 6 7 7 8 8 7 8 6 6 4 4 4 3 3 4 2 4 4 1 3 3 4 4 3 3 4 4 4 3 3 4 3 3 2 2 2 2 1 1 2 2 1 1 2 2 1
1 5 7 5 4 1 1 2 4 2 3 3 1 4 3 5 0 1 2 6 7 4 6 4 4 6 7 8 9 9 9 8 4 3 5 8 7 6 7 9 9 9 8 6 6 7 8 9 8 8 8 7 7 7 8 8 7 6 7 7 6 6 6 1 0 0 3 1 2 4 3 3 3 5 4 4 4 4 5 4 4 4 4 4 3 4 3 2 2 1 1 2 2 2 2 2 3
4 2 6 4 3 1 1 5 2 2 2 3 6 3 2 1 1 2 3 5 6 5 4 4 7 6 6 6 7 7 8 7 8 9 9 7 8 12 14 13 11 11 9 7 7 7 10 10 9 8 6 7 6 7 6 8 8 6 5 4 4 5 5 5 3 2 0 1 4 3 3 3 3 3 5 4 4 5 6 5 5 5 5 4 4 4 3 2 4 3 2 2 2 2 3 4 3
4 3 6 4 3 4 4 4 3 0 1 4 5 4 2 1 3 3 1 5 2 8 7 7 8 8 5 6 6 6 7 8 8 8 10 11 12 11 10 11 9 8 7 9 8 9 8 7 7 6 6 6 6 6 7 5 7 7 7 6 4 1 3 3 3 2 2 1 4 3 4 3 3 3 3 5 4 5 5 6 5 5 5 4 4 5 3 3 3 3 3 3 3 2 2 2 3
4 5 5 5 5 5 2 2 4 2 4 2 1 2 1 4 5 5 2 1 3 8 11 12 12 11 9 7 5 7 7 7 6 6 7 10 9 8 8 6 7 9 9 8 7 7 6 5 5 5 5 5 5 5 5 5 5 7 7 6 7 4 2 2 3 4 2 2 4 3 3 3 3 4 4 4 4 4 5 5 5 6 5 5 5 5 4 5 4 4 3 3 3 4 2 3 2
4 5 3 3 8 3 2 6 3 5 1 2 2 2 3 1 4 3 1 1 2 4 2 5 4 6 7 5 8 8 9 8 7 6 5 4 2 5 6 10 8 5 6 7 8 8 7 6 4 4 5 6 5 4 4 7 6 7 8 8 8 7 4 4 5 3 2 2 3 1 2 2 2 3 4 4 4 4 4 4 5 5 4 5 5 6 5 5 4 4 4 5 5 5 4 4 5
3 1 3 4 2 7 5 4 5 4 2 3 4 1 1 3 3 5 5 6 4 7 6 10 11 12 9 7 6 6 6 7 6 5 5 5 5 5 5 7 7 8 6 6 5 4 4 8 10 11 10 7 5 2 3 5 8 7 8 9 9 8 8 6 7 6 4 4 3 3 0 2 2 2 3 4 4 4 5 4 4 4 5 6 6 5 4 5 4 4 5 5 5 4 3 5 4
5 6 7 6 2 3 1 3 1 2 4 1 0 2 1 3 3 6 9 5 4 3 3 4 7 6 6 7 8 5 4 6 6 6 5 5 7 8 8 8 6 7 9 6 5 9 12 14 14 11 6 5 7 7 7 6 5 6 6 7 8 8 7 7 6 6 4 4 4 3 2 3 1 3 2 4 3 4 5 5 4 5 5 5 5 5 4 4 5 5 5 5 5 5 4 5 6
5 5 5 5 1 2 2 2 1 2 4 5 1 0 1 3 4 3 6 6 2 3 3 5 2 2 4 4 4 4 5 6 5 5 6 7 7 7 7 8 8 6 5 5 9 11 10 11 14 15 13 14 13 11 9 7 5 5 6 7 8 8 8 8 7 7 5 3 4 4 4 4 4 3 3 4 4 3 3 4 4 4 4 4 5 5 5 4 5 5 4 5 5 3 4 5 5
5 3 9 7 7 5 3 4 3 6 6 2 3 2 2 2 1 5 3 2 3 6 7 7 8 8 9 9 9 7 6 5 4 2 1 2 4 5 6 6 6 6 5 7 9 10 10 10 11 13 13 12 9 7 7 7 6 5 5 5 7 6 7 7 7 6 5 4 3 3 2 1 2 2 2 1 0 2 4 4 4 5 4 5 5 5 5 5 5 5 5 5 4 3 5 5 5
0 2 6 6 5 7 2 4 3 2 2 1 1 1 3 4 2 3 3 3 7 9 9 10 10 8 11 12 11 9 8 7 5 4 3 2 1 3 4 4 4 4 4 7 8 9 8 9 11 13 13 9 6 7 8 9 7 5 6 5 5 5 5 5 6 5 4 3 4 4 3 2 2 2 2 1 1 1 4 4 4 4 4 5 5 5 5 5 4 6 4 5 4 2 6 6 4
2 3 3 4 2 10 5 1 1 4 5 1 0 0 2 4 1 2 4 6 5 7 8 10 9 9 11 10 9 10 7 1 0 5 2 1 2 1 2 4 4 4 4 7 7 8 9 8 8 6 7 1 8 7 6 4 3 8 7 7 5 3 4 8 8 7 6 4 3 3 3 3 1 1 2 1 1 0 1 3 4 4 4 4 4 4 5 5 4 5 5 5 5 4 5 4 4
6 2 5 2 2 6 6 2 3 4 2 3 2 2 2 3 3 4 3 5 3 4 4 4 6 11 10 7 9 11 4 2 1 2 2 2 3 2 1 3 4 5 6 7 7 6 5 5 7 14 15 11 7 4 7 7 6 7 8 7 7 7 6 6 4 6 6 5 4 2 1 2 4 3 2 1 1 1 1 1 3 3 4 4 5 4 4 4 4 4 4 4 4 4 5 3 4
2 4 4 3 1 1 3 6 0 1 1 1 2 1 2 4 2 2 1 4 2 1 1 3 4 2 8 7 9 10 7 4 2 3 4 4 4 4 3 3 3 3 3 5 7 6 5 4 6 10 12 11 8 8 7 7 7 3 1 4 8 8 7 8 8 5 6 6 6 5 4 5 3 3 3 3 3 3 2 2 2 3 3 4 3 4 4 5 5 6 4 5 3 4 5 5 3
2 2 3 1 5 2 4 3 4 6 2 2 2 3 2 3 3 2 4 4 5 4 1 2 1 1 1 5 10 8 6 4 3 3 4 4 4 4 3 3 4 4 5 5 7 6 6 6 6 6 6 7 9 10 9 7 4 7 7 6 5 6 7 9 9 8 6 7 7 7 6 4 6 4 4 4 4 4 4 4 2 3 2 3 4 3 3 3 3 4 4 5 4 4 5 4 3
4 6 2 1 3 2 5 1 1 4 5 4 3 1 4 4 4 2 4 5 8 10 9 4 4 3 3 1 2 5 4 3 3 4 4 4 5 4 4 3 3 2 3 5 6 7 6 5 6 6 9 8 9 10 11 9 8 10 6 5 6 5 6 7 8 7 7 6 5 6 6 6 3 5 4 5 5 5 4 4 4 3 4 4 4 4 3 4 3 3 2 3 3 3 4 2 3
3 3 1 4 5 5 3 3 2 2 5 4 5 3 6 7 3 4 3 3 7 4 6 6 4 5 3 3 3 4 2 1 2 3 3 3 4 4 3 3 3 3 3 4 4 5 6 6 6 6 6 7 8 7 8 9 7 6 3 4 5 3 3 3 6 7 7 6 3 4 5 3 5 7 5 6 6 5 4 4 4 3 3 2 3 4 4 4 4 4 2 1 3 3 3 2 1
Wind_Direction
261 280 175 160 82 108 61 4 146 302 80 248 290 211 251 257 249 326 263 349 165 273 295 1 51 56 128 170 131 109 29 105 333 143 214 184 117 106 107 112 113 101 107 104 95 112 120 131 133 129 130 129 127 126 125 122 118 118 116 115 112 107 106 107 110 114 117 117 117 117 116 115 115 114 113 113 112 111 110 112 115 116 114 115 114 110 107 104 104 104 104 106 108 108 110 111 111
250 15 69 133 95 69 214 124 95 351 35 356 249 122 251 276 0 229 269 206 215 133 72 91 70 78 87 106 133 130 38 37 45 69 86 97 97 102 116 119 119 118 120 117 106 101 118 130 128 130 131 129 131 129 127 124 122 121 120 117 114 112 110 111 112 115 116 117 118 117 116 114 113 112 113 113 111 111 114 118 119 120 117 117 116 114 112 108 106 103 105 107 108 109 110 114 114
269 47 41 32 24 80 118 39 223 104 136 229 268 206 310 318 249 288 275 174 140 146 95 75 72 49 39 25 41 37 215 72 79 69 97 120 109 111 101 99 106 117 123 129 129 126 126 126 131 132 132 129 130 129 126 126 126 124 122 119 118 115 114 113 114 115 118 118 118 118 118 116 113 113 112 111 113 114 110 114 127 121 118 119 117 115 112 110 108 109 108 106 109 113 119 116 114
77 38 125 70 104 21 77 31 86 131 171 222 316 262 211 212 247 28 343 121 161 156 157 146 61 297 104 65 119 73 71 58 67 119 116 86 64 99 81 80 98 79 64 63 103 128 131 138 133 135 130 131 131 130 130 131 130 127 122 118 117 116 114 114 115 116 118 120 119 119 118 117 116 115 115 115 115 113 118 121 123 122 119 116 118 118 115 112 111 112 112 113 112 114 118 117 109
54 17 81 95 109 2 103 181 147 105 231 195 197 273 240 236 272 41 9 325 278 282 300 164 95 357 109 110 157 93 100 100 101 45 90 90 99 101 99 87 77 62 67 96 101 119 132 136 136 140 140 141 136 136 137 137 133 128 123 120 118 117 116 117 118 119 121 121 120 119 118 118 118 117 117 119 119 120 125 129 134 124 120 117 115 114 115 115 114 111 110 110 116 114 113 109 104
61 52 7 91 105 185 54 58 232 203 231 135 221 258 268 255 263 12 246 173 344 310 306 309 131 165 44 29 55 109 139 140 130 91 122 129 124 125 118 133 138 130 118 91 92 78 125 128 132 139 144 143 142 141 142 141 136 129 125 122 120 119 119 120 122 122 122 121 119 118 118 117 117 118 120 123 121 126 131 136 133 122 120 118 113 112 114 115 114 111 113 113 113 117 119 116 111
197 46 356 27 10 58 164 155 224 215 265 155 233 276 277 290 294 329 14 352 15 328 323 229 120 109 86 95 45 14 300 133 119 126 104 127 119 127 137 130 126 125 125 111 93 107 135 132 133 139 145 146 146 143 145 143 138 133 129 124 122 122 124 125 126 126 125 124 123 122 120 116 115 116 117 117 121 123 125 124 124 122 120 125 121 123 123 122 120 115 112 113 117 116 114 114 113
74 119 268 107 224 53 173 204 243 174 269 189 239 263 282 278 287 313 289 143 234 179 19 176 12 79 28 19 97 18 34 42 94 98 112 123 135 136 113 115 115 115 114 112 111 122 128 125 131 140 145 147 145 143 145 145 141 136 132 129 126 125 127 129 130 128 127 126 125 121 117 117 118 118 116 116 118 121 125 126 126 121 112 115 126 125 124 122 117 115 117 116 117 120 121 115 111
351 85 296 74 83 32 46 230 249 223 275 283 259 240 263 267 268 251 253 224 219 104 155 300 2 69 152 76 58 67 57 94 100 113 124 136 128 115 109 111 118 115 108 103 101 110 119 127 130 139 145 147 146 146 147 147 143 139 135 133 131 130 130 129 129 126 124 123 123 121 119 117 118 119 120 121 122 127 128 129 123 119 114 109 116 120 121 120 120 122 124 128 122 109 102 102 99
26 90 209 145 131 204 355 290 35 250 241 242 275 282 268 271 269 223 248 229 197 110 21 55 84 112 123 90 90 73 110 108 113 111 127 123 117 115 109 108 115 118 114 111 113 115 122 130 127 136 142 145 146 147 148 148 145 140 138 136 133 130 129 127 123 121 121 122 122 122 122 121 120 122 124 126 128 129 130 126 126 123 122 123 124 128 125 124 124 126 130 133 130 105 88 89 88
37 3 142 76 38 141 231 269 265 301 275 311 290 260 260 268 266 269 181 193 108 121 128 98 75 102 86 66 48 78 128 123 124 133 138 131 128 122 117 117 118 121 120 119 109 97 105 130 137 139 147 146 146 145 145 148 144 138 134 132 130 129 129 126 124 123 123 125 125 124 122 122 124 127 128 129 130 132 130 128 130 128 127 127 127 128 130 128 130 131 132 134 124 101 94 87 86
30 65 18 106 175 165 237 201 291 280 298 295 275 295 303 299 224 135 151 124 137 136 173 181 141 119 81 89 80 128 116 110 124 128 128 130 124 122 122 125 123 124 124 121 107 108 140 130 123 153 151 150 145 145 148 147 142 138 136 134 133 132 132 130 126 124 124 124 122 119 121 125 127 126 126 128 131 132 130 131 131 135 133 135 132 133 135 135 134 132 132 130 123 107 95 84 88
124 118 84 92 224 145 214 61 262 291 322 291 253 302 328 335 235 161 137 114 128 134 139 144 140 132 114 103 117 125 127 132 129 120 125 130 128 126 124 123 121 112 106 112 119 124 132 115 133 153 153 148 142 143 147 146 142 140 139 135 134 133 133 130 127 125 122 119 119 120 119 118 122 125 127 130 129 130 131 132 137 139 142 142 139 137 136 136 132 133 131 127 115 95 76 66 65
118 178 122 230 96 213 143 224 298 345 300 257 281 276 318 295 240 151 116 87 60 57 66 130 109 105 89 111 129 176 137 139 135 126 124 121 115 110 111 112 110 105 108 121 122 125 117 113 133 142 145 136 140 143 147 147 141 139 135 134 134 133 130 126 123 120 119 121 122 121 118 121 126 130 132 132 132 132 128 133 138 146 146 146 141 136 135 133 133 134 135 130 113 87 75 62 60
227 183 83 126 272 37 255 136 207 147 277 297 279 333 332 318 84 32 106 103 27 124 110 29 151 93 203 160 195 183 165 151 142 125 118 110 101 103 109 109 106 108 115 109 103 119 122 124 128 130 130 131 137 139 151 149 139 136 132 134 134 133 127 128 127 125 128 125 126 126 129 130 136 137 137 137 129 132 138 135 141 146 149 147 141 138 136 137 137 136 137 127 113 93 66 59 51
188 87 92 127 255 174 278 199 225 152 262 287 293 312 325 356 10 111 296 148 131 93 51 144 321 157 183 186 167 153 148 148 143 129 124 117 112 109 112 114 109 102 103 107 119 112 124 118 122 132 138 139 135 148 155 148 142 137 134 135 137 136 136 132 128 132 134 133 135 137 138 140 141 140 143 141 144 142 136 135 151 149 150 150 147 144 143 138 138 137 128 121 99 87 65 55 47
69 79 330 83 265 150 261 190 120 209 262 287 311 3 20 338 324 78 34 68 117 55 67 12 319 328 159 59 112 128 135 140 135 130 124 127 128 121 117 113 107 94 102 87 108 130 141 143 145 150 148 144 146 152 146 138 148 139 139 141 144 140 137 133 134 136 138 140 139 133 118 107 117 123 120 121 145 128 149 156 158 154 158 157 155 152 145 145 145 139 131 130 100 43 39 44 36
89 158 124 265 202 146 221 193 171 192 259 297 334 330 5 12 342 52 57 46 78 70 59 43 47 58 83 97 106 118 132 136 135 134 129 129 134 136 135 138 134 145 146 138 137 130 132 137 142 146 145 149 152 146 143 143 145 141 140 143 143 144 141 138 132 138 131 119 136 120 123 127 118 115 134 136 117 151 155 165 163 166 165 165 161 161 158 157 152 145 139 132 139 15 18 54 35
138 125 120 232 174 235 179 212 271 291 276 274 295 298 280 250 174 294 80 48 53 67 55 74 85 84 93 105 118 124 137 136 137 133 137 142 145 146 151 145 149 153 156 151 146 137 141 139 148 154 159 155 148 142 141 142 130 134 139 132 136 140 143 122 115 114 88 107 104 120 127 123 128 135 132 145 154 156 170 170 169 166 164 173 168 169 165 164 162 151 154 152 124 8 31 43 34
232 130 238 245 207 235 247 228 252 212 246 293 316 308 106 288 3 297 130 118 69 121 130 64 108 119 119 121 121 130 141 140 139 144 145 150 149 151 153 157 159 169 161 161 151 152 154 156 162 165 165 159 151 146 138 131 135 130 130 123 117 106 96 104 103 114 112 121 119 107 113 135 131 153 172 173 170 142 181 176 169 169 169 174 174 165 173 173 174 171 167 154 90 33 8 27 17
280 139 215 237 212 232 263 218 236 254 184 270 301 299 323 292 290 111 139 82 336 248 193 154 154 138 134 133 135 140 141 139 147 150 145 144 142 141 159 166 165 161 162 155 150 159 160 162 163 167 166 158 147 148 143 139 132 129 126 125 121 113 112 107 113 119 134 129 121 113 118 116 118 160 35 70 98 105 72 72 125 122 139 158 148 142 158 200 151 159 110 80 115 79 0 352 14
100 213 205 223 250 265 261 247 246 252 232 286 304 315 279 297 71 94 143 158 235 207 194 150 142 144 144 147 146 142 144 147 151 145 144 146 149 156 155 148 157 149 155 160 171 161 168 172 170 162 156 153 151 144 139 149 144 148 140 137 125 112 119 119 122 129 136 132 127 133 128 114 110 87 72 77 75 82 104 116 123 130 126 138 113 143 157 148 158 165 163 136 160 78 21 328 324
238 301 244 230 219 231 270 273 242 195 253 235 41 231 353 25 318 134 146 176 254 244 121 143 146 148 139 134 139 143 148 153 156 150 144 144 157 166 169 169 166 169 177 175 169 169 168 169 162 150 149 147 147 145 144 146 157 161 149 146 139 131 128 128 127 126 125 132 135 146 141 153 147 100 98 92 89 95 129 125 137 142 140 147 153 142 165 178 172 179 164 182 57 42 358 336 317
191 245 264 282 212 225 256 266 258 253 215 251 209 355 305 304 304 93 51 318 138 113 117 128 131 135 138 138 147 147 152 156 156 155 160 167 164 166 174 174 177 172 174 172 167 165 169 168 162 160 158 158 154 154 152 152 161 163 167 166 140 151 140 139 134 137 134 136 149 161 150 154 158 122 109 116 117 112 156 149 123 132 137 159 159 153 162 178 180 188 183 225 85 55 1 327 309
196 260 247 257 276 243 259 257 267 247 243 256 359 290 259 217 228 57 10 39 112 114 120 126 130 133 137 141 148 152 154 150 150 152 144 138 165 150 163 187 180 176 179 173 167 168 176 165 161 165 161 157 155 154 157 154 159 158 167 151 143 163 141 145 145 142 146 154 160 162 155 158 143 115 132 137 120 145 161 151 148 159 155 164 145 186 177 175 195 193 176 191 72 24 346 297 288
211 226 247 287 278 276 260 282 264 232 246 197 141 227 251 211 116 49 315 83 111 116 119 127 130 138 146 151 156 160 160 157 147 146 152 145 141 137 167 183 184 186 182 172 179 180 171 159 163 166 164 162 157 156 154 150 160 163 176 164 158 157 156 150 149 151 160 159 164 170 170 159 161 143 156 146 147 164 174 158 159 167 147 130 152 186 221 178 189 179 105 37 326 254 284 281 319
167 236 223 249 265 272 278 233 255 208 209 186 188 227 256 212 118 256 99 139 124 116 124 133 137 145 151 154 164 167 160 161 157 143 126 137 144 163 183 185 183 180 165 176 197 188 168 164 171 168 165 157 150 146 148 148 157 176 187 171 158 144 152 149 148 147 153 168 169 163 171 177 149 131 152 155 144 158 174 177 184 123 124 133 272 195 257 205 147 188 185 208 234 264 260 308 9
288 260 319 282 277 265 251 307 269 137 255 192 180 229 269 3 65 181 163 151 140 128 135 140 142 146 151 156 162 170 170 161 144 149 150 159 174 178 204 196 170 151 194 219 183 174 175 163 154 158 155 152 146 138 149 153 169 182 183 163 145 121 138 135 142 151 163 163 153 169 180 186 125 121 148 155 149 158 179 192 159 144 187 181 134 224 250 338 139 263 206 212 219 219 279 355 10
263 332 326 292 349 324 296 213 240 163 253 155 159 40 348 114 219 192 150 144 145 138 143 143 144 144 150 158 161 176 176 162 158 166 176 186 184 180 185 202 171 180 181 191 195 152 159 150 150 155 147 140 141 147 148 153 156 166 155 162 117 120 120 133 148 166 146 138 142 160 161 123 87 142 161 165 157 165 178 186 175 158 174 180 181 191 175 132 75 353 291 271 80 63 85 15 1
15 63 174 332 349 331 276 229 206 152 243 154 131 281 262 264 264 156 151 145 142 142 145 146 142 147 157 163 169 168 159 162 183 192 187 185 195 178 181 191 185 182 124 181 165 194 170 182 138 143 144 137 137 133 133 141 149 133 119 101 110 104 121 137 151 144 138 138 142 130 120 111 131 150 159 162 157 162 178 186 177 171 172 167 169 155 132 114 139 203 257 161 136 117 72 37 44
276 264 71 255 3 271 298 11 359 288 237 166 125 230 270 260 203 168 161 156 154 154 151 146 148 149 158 168 170 171 178 186 189 192 185 195 199 184 176 175 83 40 236 187 169 171 191 198 145 140 139 132 134 138 136 133 129 125 116 103 93 107 111 112 92 103 113 131 131 131 115 115 119 127 112 123 140 164 170 181 187 193 162 150 145 145 147 155 182 224 191 142 79 65 83 41 85
350 33 295 321 127 280 289 254 216 214 292 195 127 225 251 209 191 184 165 165 155 152 156 153 155 159 165 167 168 170 182 203 208 204 191 186 192 193 178 160 137 140 195 181 177 168 181 203 142 131 138 140 140 139 127 128 127 109 106 123 87 96 110 120 126 124 123 112 111 102 85 106 89 116 113 81 19 342 302 206 306 259 161 155 155 152 108 124 178 163 128 131 120 56 81 40 37
352 81 260 289 331 262 343 316 244 215 168 331 165 209 35 273 205 176 173 162 162 152 159 160 163 161 163 167 169 165 164 202 221 220 219 193 205 191 175 179 163 154 181 182 174 166 163 167 135 134 154 152 140 123 116 114 104 111 113 95 102 109 121 132 128 122 126 133 125 125 124 144 141 102 91 103 99 36 26 18 324 316 281 147 131 127 96 64 122 124 55 60 128 132 103 96 53
315 5 229 209 291 310 307 292 282 218 167 208 241 191 218 237 172 180 171 165 155 160 165 167 166 168 169 161 169 169 175 185 199 202 212 197 193 185 160 173 162 137 160 175 174 163 166 154 132 144 145 138 129 129 132 120 103 98 89 103 121 103 116 140 130 130 125 109 104 108 106 122 151 120 117 123 131 113 109 216 325 271 287 46 73 85 70 72 50 106 94 37 70 107 97 108 91
225 309 359 325 327 224 239 301 273 19 198 191 197 209 307 247 166 176 172 158 160 173 176 173 167 162 162 170 174 179 181 188 202 201 192 169 165 178 141 144 109 102 154 163 157 156 144 123 125 143 139 129 120 116 108 94 96 86 83 85 81 85 89 91 108 99 107 115 126 144 154 164 165 137 109 122 128 116 125 273 253 239 337 220 45 27 42 50 44 36 115 84 45 79 127 154 155
208 189 218 213 290 287 271 243 265 240 245 187 148 205 198 138 165 154 151 160 177 177 134 144 156 168 172 176 178 182 187 195 199 204 140 143 144 134 134 126 101 72 97 148 139 136 127 119 122 120 126 119 110 109 112 106 104 114 110 86 76 69 68 99 56 115 125 138 164 168 166 170 176 158 137 129 127 131 144 144 201 252 210 125 104 226 285 169 131 118 117 127 113 66 52 115 118
164 227 209 256 259 276 263 263 272 262 122 213 203 131 137 181 170 156 156 148 134 146 158 164 176 173 179 186 189 187 187 189 195 175 137 144 156 150 147 131 113 98 166 163 142 141 146 148 141 143 137 135 138 139 136 137 122 93 70 105 133 157 140 125 102 122 125 162 173 179 176 173 164 145 141 140 142 158 140 164 190 200 135 139 176 211 215 187 186 157 141 96 121 97 59 72 54
214 249 213 268 237 278 275 303 334 330 123 333 122 123 173 175 151 159 147 141 179 167 173 178 181 185 188 186 187 193 182 114 132 140 148 154 164 168 156 146 136 142 179 172 150 151 148 145 141 138 138 144 147 150 148 146 150 158 150 169 145 114 88 90 67 27 37 46 84 107 119 110 108 113 117 112 117 129 149 174 187 186 143 184 182 258 215 160 125 115 116 58 34 121 122 146 229
14 181 221 3 283 249 292 312 321 327 85 318 158 131 126 134 179 165 168 191 190 177 178 182 175 184 188 192 192 178 165 178 155 159 159 172 171 171 158 149 146 159 169 169 152 141 139 135 136 140 146 140 142 142 139 143 120 127 132 152 142 107 17 30 90 54 57 66 38 51 72 98 132 124 141 141 145 185 167 171 207 121 138 151 134 89 16 88 139 174 139 130 82 46 108 192 241
190 252 45 258 247 10 306 297 351 353 54 181 155 116 267 320 321 257 221 189 203 187 189 183 181 178 183 189 187 182 180 171 175 170 174 184 181 172 156 156 159 153 174 160 154 147 144 140 143 143 147 143 141 136 122 100 99 89 83 110 89 109 138 100 82 58 62 62 47 38 47 61 70 85 118 163 169 167 171 162 121 118 143 149 126 140 160 206 164 143 123 120 128 114 130 308 81
280 216 161 225 286 241 166 271 345 334 4 62 62 50 355 9 115 212 266 27 103 208 167 168 210 225 236 203 187 186 182 175 166 165 176 181 184 187 170 164 151 159 178 170 166 161 157 157 156 154 155 152 138 125 119 117 103 83 85 76 88 85 65 57 66 43 27 81 84 51 36 54 86 79 80 112 148 160 128 124 141 149 150 141 144 146 170 201 217 180 152 138 153 153 186 180 66
311 241 186 198 193 257 286 322 29 29 349 8 106 57 293 296 300 206 237 83 153 191 191 198 187 188 174 182 192 183 181 196 184 182 181 177 173 172 164 156 155 168 180 183 174 168 158 161 156 151 150 146 132 131 134 131 132 130 122 113 103 87 100 98 116 132 97 95 97 47 39 55 86 85 84 91 109 118 123 136 131 123 117 105 109 116 121 102 111 106 204 175 141 193 160 124 162
107 266 192 193 184 181 333 52 75 359 95 333 27 130 228 329 239 154 245 198 188 161 216 221 184 202 195 194 183 180 180 177 182 161 168 167 169 163 169 167 170 177 188 180 178 169 165 161 163 160 162 148 134 138 141 131 131 142 148 147 149 153 146 234 231 217 131 99 76 81 65 34 51 96 83 94 103 113 113 109 107 101 101 102 101 93 79 102 104 116 147 161 171 162 132 152 176
223 249 125 105 93 141 206 101 112 189 239 300 34 91 135 343 295 274 304 193 191 209 224 210 208 214 219 200 184 178 177 181 180 181 174 172 172 175 176 177 177 184 178 173 175 174 170 170 165 166 162 143 138 139 144 143 142 141 129 129 139 147 157 161 161 161 348 92 72 46 63 43 34 58 90 81 99 107 109 103 103 102 98 95 100 95 107 101 90 67 85 101 96 122 154 159 153
215 183 159 155 164 187 129 92 104 65 122 272 330 352 61 251 265 316 30 131 223 223 217 223 218 210 213 211 184 170 171 178 178 179 176 176 180 187 176 179 179 170 172 177 181 181 175 167 163 161 143 126 126 138 140 147 141 146 142 136 126 149 145 144 128 77 80 38 72 32 56 40 47 46 63 94 88 102 101 107 102 98 96 96 99 100 91 84 90 96 87 83 95 62 102 139 133
278 155 83 78 76 67 84 99 84 349 70 278 271 352 156 289 283 343 350 100 201 226 212 212 212 205 197 194 188 170 168 175 182 193 184 185 186 181 177 159 166 183 181 179 176 173 172 157 161 151 122 108 119 126 133 135 140 138 137 146 141 150 131 98 102 95 62 45 80 44 51 56 48 60 56 74 89 88 96 99 97 97 100 98 92 95 92 78 70 74 73 97 101 84 43 77 104
121 85 76 36 42 20 13 62 84 66 32 256 253 304 130 293 272 231 72 157 200 237 281 265 228 216 195 193 185 180 174 170 170 180 197 180 134 147 153 173 180 176 184 181 175 175 169 151 136 106 80 72 78 95 135 152 160 158 152 153 150 151 162 152 126 110 82 78 102 69 79 71 60 88 86 70 85 97 91 95 101 99 91 89 86 82 81 89 79 81 73 71 62 72 68 75 72
129 77 115 76 11 11 25 346 39 92 268 260 264 239 85 175 297 313 233 272 255 206 217 196 201 201 191 173 185 189 166 155 156 170 157 139 134 148 156 172 177 181 182 185 178 138 82 54 53 51 40 55 65 69 148 174 168 167 157 153 153 158 164 161 153 159 164 159 157 150 142 77 62 68 91 101 96 100 103 93 94 93 94 94 90 97 95 91 85 79 70 69 68 62 64 74 71
85 83 49 113 237 45 244 3 295 150 173 227 205 136 43 237 213 276 305 294 312 212 201 236 187 175 168 172 176 162 152 143 153 170 163 163 171 173 178 182 174 181 187 179 120 81 84 91 91 92 104 137 161 174 180 184 167 161 152 154 157 160 165 157 153 158 168 164 172 152 144 146 157 101 117 111 133 128 121 112 107 105 98 98 107 98 98 97 91 83 83 80 78 74 75 81 75
102 138 135 97 95 48 205 281 305 325 294 264 299 10 241 249 304 328 319 319 278 71 61 78 33 131 142 135 132 125 136 144 159 172 181 182 185 190 184 181 185 180 174 135 103 110 122 130 140 146 165 175 181 177 160 158 169 159 159 163 164 162 167 158 157 159 171 166 175 169 178 175 184 186 180 162 173 139 112 126 120 110 108 109 105 105 99 90 85 84 81 81 77 79 80 79 90
217 136 145 182 146 158 211 187 183 200 182 254 290 64 232 88 253 339 330 320 56 54 74 77 84 91 86 75 61 56 69 60 75 69 76 224 219 196 191 187 182 180 154 113 122 131 137 150 163 162 167 184 182 156 136 148 153 159 163 171 168 171 168 160 156 154 157 161 167 163 201 239 227 248 237 248 302 125 126 117 121 122 128 123 115 108 104 97 96 92 88 93 83 81 80 83 71
166 153 82 96 225 147 148 203 144 179 147 39 173 206 174 114 271 316 294 78 60 71 64 73 78 83 81 70 59 38 21 44 44 64 36 359 309 230 201 186 182 168 135 124 130 140 149 161 173 181 169 169 167 138 153 157 151 152 156 171 188 180 172 149 136 134 142 157 171 167 191 209 249 281 298 333 290 171 135 127 121 133 136 128 121 120 115 108 107 104 95 89 82 72 87 81 91
256 83 169 209 161 106 95 56 80 88 56 226 248 27 359 292 359 0 336 62 56 81 88 98 96 88 87 90 91 64 19 344 250 108 107 52 11 353 215 183 169 151 146 145 147 155 159 162 161 127 83 340 45 20 34 36 130 158 172 165 171 183 182 157 156 159 158 160 170 178 177 202 217 244 280 327 279 293 160 144 131 129 132 132 128 129 127 126 125 118 119 110 106 92 91 99 99
91 165 227 157 113 113 120 154 336 58 139 251 23 211 160 85 207 336 9 66 7 51 56 76 115 116 114 133 120 124 173 276 298 35 47 61 78 53 57 170 169 172 168 151 144 148 157 152 119 121 156 194 120 134 155 169 191 178 169 167 167 184 189 136 129 157 155 162 172 175 154 187 209 205 195 229 231 232 246 152 132 130 131 136 143 141 134 133 124 119 128 126 139 122 104 92 94
148 211 179 95 250 185 333 95 114 110 235 272 4 231 246 161 228 337 193 155 179 98 66 99 85 42 121 115 118 138 155 182 118 78 73 54 37 45 50 102 129 138 138 128 123 132 144 142 122 145 152 170 170 162 181 191 159 134 39 186 180 193 192 162 161 171 159 171 179 181 190 207 208 197 185 192 196 220 218 201 160 145 135 144 151 154 149 146 142 134 139 133 143 124 118 120 136
43 59 22 2 97 152 129 191 166 117 218 85 274 51 202 222 213 204 237 234 181 150 152 181 104 76 327 147 147 143 148 145 126 106 91 84 69 54 50 82 120 143 145 136 132 134 148 163 154 156 147 141 144 163 174 194 116 117 198 232 215 201 189 174 163 157 170 179 189 187 191 198 213 203 204 190 192 198 203 195 200 167 161 154 162 165 157 148 136 143 148 144 164 139 133 138 139
342 27 339 2 41 219 109 36 83 160 160 171 155 343 283 266 213 184 235 211 203 169 175 177 146 114 100 55 94 113 114 132 120 106 88 75 71 64 60 58 73 87 121 134 141 146 148 146 160 166 162 163 162 170 173 185 166 184 196 196 207 218 208 176 156 162 172 189 196 192 193 201 180 212 201 201 199 201 199 199 190 190 180 184 178 182 178 148 145 149 153 148 141 139 134 150 121
138 149 137 174 117 121 127 221 14 82 106 192 125 222 274 269 180 212 236 227 177 190 153 147 146 143 133 113 56 41 44 20 78 81 90 96 96 93 88 74 66 82 93 145 140 130 149 162 166 166 168 179 171 172 177 174 178 174 201 188 198 225 250 166 150 157 185 191 190 213 203 170 198 215 196 208 208 205 196 186 188 212 225 223 209 193 179 162 158 158 170 154 153 137 132 149 111